QPF
0.01 0.01 0.01 0.02 0.03 0.02 0.00 0.00 0.00 0.00 0.00 0.00 0.00 0.00 0.00 0.01 0.01 0.01 0.01 0.01 0.00 0.00 0.01 0.01 0.01 0.01 0.00 0.00 0.00 0.01 0.01 0.01 0.01 0.01 0.01 0.01 0.01 0.01 0.01 0.01 0.01 0.02 0.02 0.01 0.02 0.02 0.02 0.02 0.02
0.01 0.01 0.02 0.03 0.02 0.01 0.00 0.00 0.00 0.00 0.00 0.00 0.00 0.00 0.00 0.00 0.00 0.00 0.01 0.01 0.01 0.01 0.00 0.01 0.02 0.01 0.00 0.00 0.00 0.00 0.01 0.01 0.01 0.01 0.01 0.01 0.01 0.01 0.01 0.01 0.02 0.02 0.01 0.01 0.01 0.02 0.04 0.02 0.01
0.02 0.02 0.03 0.03 0.01 0.01 0.00 0.00 0.00 0.00 0.00 0.00 0.00 0.00 0.00 0.00 0.00 0.00 0.01 0.02 0.01 0.01 0.01 0.01 0.02 0.01 0.01 0.00 0.00 0.00 0.01 0.01 0.01 0.01 0.02 0.02 0.02 0.01 0.02 0.01 0.01 0.02 0.01 0.01 0.01 0.02 0.03 0.02 0.02
0.03 0.04 0.04 0.02 0.01 0.01 0.00 0.00 0.00 0.00 0.00 0.00 0.00 0.00 0.01 0.01 0.00 0.01 0.02 0.02 0.01 0.01 0.01 0.01 0.02 0.01 0.01 0.00 0.00 0.00 0.01 0.01 0.01 0.01 0.03 0.03 0.03 0.02 0.02 0.02 0.02 0.02 0.02 0.02 0.02 0.02 0.02 0.02 0.02
0.04 0.04 0.03 0.01 0.01 0.00 0.01 0.00 0.00 0.00 0.00 0.00 0.00 0.00 0.01 0.01 0.01 0.01 0.02 0.02 0.02 0.01 0.01 0.02 0.02 0.01 0.01 0.01 0.01 0.00 0.00 0.01 0.01 0.01 0.03 0.04 0.04 0.03 0.02 0.03 0.03 0.03 0.02 0.02 0.02 0.02 0.02 0.02 0.02
0.04 0.04 0.02 0.01 0.01 0.01 0.01 0.01 0.00 0.00 0.00 0.00 0.00 0.00 0.01 0.01 0.01 0.01 0.02 0.02 0.02 0.01 0.01 0.02 0.01 0.01 0.01 0.01 0.01 0.01 0.01 0.00 0.00 0.01 0.04 0.04 0.04 0.03 0.02 0.02 0.03 0.03 0.02 0.01 0.02 0.01 0.01 0.02 0.03
0.04 0.03 0.02 0.01 0.01 0.02 0.01 0.01 0.00 0.00 0.00 0.01 0.00 0.00 0.01 0.01 0.01 0.01 0.01 0.02 0.02 0.02 0.03 0.02 0.02 0.02 0.01 0.01 0.01 0.01 0.01 0.01 0.01 0.01 0.02 0.03 0.04 0.03 0.02 0.01 0.02 0.03 0.02 0.01 0.01 0.01 0.01 0.01 0.02
0.05 0.03 0.01 0.01 0.02 0.03 0.02 0.01 0.01 0.00 0.00 0.00 0.00 0.00 0.00 0.01 0.01 0.01 0.01 0.01 0.02 0.02 0.02 0.02 0.02 0.03 0.02 0.02 0.01 0.01 0.01 0.01 0.01 0.00 0.01 0.01 0.01 0.02 0.02 0.01 0.01 0.02 0.02 0.01 0.01 0.01 0.01 0.02 0.02
0.05 0.03 0.01 0.02 0.04 0.04 0.02 0.01 0.00 0.00 0.00 0.00 0.00 0.00 0.00 0.00 0.00 0.01 0.01 0.01 0.01 0.01 0.02 0.01 0.02 0.03 0.03 0.03 0.02 0.01 0.02 0.01 0.01 0.01 0.00 0.01 0.01 0.01 0.01 0.01 0.01 0.02 0.01 0.01 0.01 0.01 0.02 0.02 0.02
0.05 0.02 0.02 0.03 0.04 0.03 0.01 0.01 0.01 0.01 0.01 0.00 0.00 0.01 0.01 0.01 0.01 0.01 0.01 0.00 0.00 0.00 0.01 0.01 0.01 0.01 0.03 0.04 0.04 0.04 0.03 0.02 0.01 0.01 0.01 0.00 0.00 0.00 0.00 0.00 0.01 0.01 0.01 0.01 0.01 0.01 0.02 0.02 0.02
0.06 0.03 0.02 0.02 0.01 0.01 0.00 0.01 0.01 0.01 0.01 0.00 0.00 0.00 0.01 0.01 0.01 0.02 0.01 0.01 0.00 0.00 0.00 0.01 0.02 0.03 0.02 0.03 0.04 0.05 0.04 0.03 0.02 0.01 0.01 0.01 0.01 0.01 0.00 0.00 0.01 0.01 0.01 0.01 0.01 0.01 0.01 0.01 0.01
0.05 0.01 0.01 0.00 0.00 0.00 0.00 0.00 0.00 0.00 0.00 0.01 0.01 0.01 0.01 0.01 0.01 0.02 0.02 0.01 0.01 0.00 0.00 0.01 0.01 0.03 0.03 0.02 0.04 0.05 0.04 0.03 0.02 0.02 0.01 0.01 0.01 0.01 0.01 0.02 0.02 0.02 0.01 0.01 0.01 0.01 0.01 0.01 0.01
0.04 0.01 0.00 0.00 0.00 0.00 0.00 0.00 0.00 0.00 0.01 0.01 0.01 0.01 0.01 0.01 0.02 0.03 0.03 0.02 0.01 0.01 0.01 0.01 0.01 0.03 0.03 0.02 0.02 0.02 0.02 0.02 0.02 0.02 0.01 0.01 0.01 0.01 0.02 0.02 0.04 0.04 0.03 0.02 0.01 0.01 0.01 0.02 0.02
0.02 0.01 0.00 0.00 0.00 0.00 0.00 0.00 0.00 0.00 0.01 0.01 0.01 0.02 0.03 0.03 0.02 0.03 0.04 0.03 0.02 0.01 0.01 0.01 0.01 0.01 0.02 0.04 0.05 0.03 0.02 0.01 0.01 0.01 0.01 0.01 0.01 0.01 0.01 0.02 0.04 0.05 0.04 0.04 0.03 0.02 0.02 0.02 0.03
0.02 0.01 0.00 0.00 0.00 0.00 0.00 0.01 0.01 0.00 0.00 0.01 0.01 0.02 0.03 0.04 0.03 0.03 0.03 0.03 0.03 0.02 0.02 0.01 0.01 0.01 0.01 0.03 0.06 0.06 0.04 0.02 0.01 0.01 0.01 0.01 0.01 0.01 0.02 0.02 0.03 0.05 0.04 0.04 0.04 0.03 0.03 0.04 0.04
0.02 0.01 0.00 0.00 0.00 0.00 0.01 0.01 0.00 0.00 0.00 0.00 0.01 0.02 0.02 0.03 0.04 0.03 0.03 0.03 0.03 0.03 0.03 0.02 0.01 0.01 0.01 0.01 0.03 0.05 0.05 0.03 0.02 0.02 0.02 0.02 0.02 0.03 0.03 0.03 0.04 0.06 0.07 0.06 0.05 0.04 0.04 0.04 0.04
0.02 0.01 0.00 0.00 0.00 0.01 0.01 0.01 0.00 0.00 0.01 0.00 0.01 0.02 0.02 0.02 0.02 0.02 0.02 0.03 0.03 0.03 0.03 0.02 0.01 0.01 0.01 0.01 0.01 0.01 0.03 0.04 0.03 0.03 0.02 0.01 0.01 0.02 0.03 0.04 0.04 0.05 0.06 0.06 0.06 0.06 0.05 0.05 0.04
0.02 0.01 0.01 0.00 0.00 0.01 0.01 0.01 0.00 0.00 0.00 0.01 0.01 0.01 0.01 0.01 0.01 0.01 0.01 0.01 0.02 0.02 0.03 0.02 0.02 0.01 0.01 0.01 0.01 0.01 0.01 0.01 0.02 0.03 0.03 0.02 0.01 0.01 0.01 0.02 0.02 0.03 0.03 0.03 0.03 0.05 0.06 0.05 0.05
0.02 0.01 0.01 0.00 0.00 0.01 0.01 0.01 0.00 0.00 0.00 0.00 0.01 0.01 0.01 0.01 0.00 0.00 0.00 0.01 0.01 0.02 0.02 0.02 0.02 0.02 0.01 0.01 0.01 0.00 0.00 0.00 0.00 0.00 0.01 0.01 0.01 0.01 0.01 0.01 0.01 0.01 0.02 0.02 0.02 0.03 0.05 0.06 0.07
0.02 0.02 0.01 0.01 0.00 0.01 0.01 0.01 0.00 0.00 0.00 0.00 0.00 0.00 0.00 0.01 0.01 0.01 0.00 0.01 0.01 0.02 0.02 0.02 0.02 0.02 0.01 0.01 0.01 0.00 0.00 0.00 0.00 0.00 0.00 0.00 0.00 0.01 0.01 0.01 0.01 0.01 0.01 0.01 0.01 0.02 0.02 0.03 0.05
0.01 0.01 0.01 0.01 0.01 0.01 0.02 0.01 0.00 0.00 0.00 0.01 0.00 0.00 0.00 0.01 0.01 0.01 0.01 0.01 0.01 0.01 0.01 0.01 0.01 0.01 0.01 0.01 0.00 0.00 0.00 0.00 0.00 0.00 0.00 0.00 0.00 0.00 0.00 0.01 0.01 0.00 0.01 0.01 0.01 0.01 0.01 0.02 0.03
0.01 0.00 0.01 0.01 0.01 0.01 0.01 0.01 0.00 0.00 0.00 0.01 0.00 0.00 0.00 0.00 0.00 0.00 0.00 0.01 0.01 0.01 0.01 0.01 0.01 0.01 0.01 0.00 0.00 0.00 0.00 0.00 0.00 0.00 0.00 0.00 0.00 0.00 0.00 0.01 0.01 0.01 0.01 0.01 0.01 0.02 0.02 0.02 0.02
0.00 0.00 0.00 0.00 0.00 0.00 0.00 0.01 0.00 0.00 0.00 0.00 0.00 0.00 0.00 0.00 0.00 0.00 0.00 0.01 0.01 0.01 0.01 0.01 0.01 0.01 0.00 0.00 0.00 0.00 0.00 0.00 0.00 0.00 0.01 0.01 0.01 0.00 0.00 0.01 0.01 0.01 0.01 0.01 0.01 0.01 0.02 0.02 0.02
0.00 0.00 0.00 0.00 0.00 0.01 0.00 0.01 0.01 0.00 0.00 0.00 0.00 0.00 0.00 0.00 0.00 0.00 0.00 0.00 0.01 0.01 0.01 0.01 0.01 0.00 0.00 0.00 0.00 0.00 0.00 0.00 0.00 0.00 0.00 0.02 0.02 0.01 0.00 0.01 0.01 0.01 0.01 0.01 0.01 0.01 0.02 0.02 0.02
0.00 0.00 0.01 0.01 0.01 0.00 0.00 0.00 0.00 0.00 0.00 0.00 0.00 0.00 0.00 0.00 0.00 0.00 0.00 0.00 0.00 0.00 0.01 0.01 0.01 0.01 0.00 0.00 0.00 0.00 0.00 0.00 0.00 0.00 0.00 0.00 0.01 0.01 0.01 0.00 0.01 0.02 0.01 0.01 0.01 0.01 0.01 0.01 0.02
0.00 0.00 0.01 0.01 0.00 0.00 0.01 0.01 0.00 0.00 0.00 0.00 0.00 0.00 0.00 0.00 0.00 0.00 0.00 0.00 0.00 0.00 0.00 0.00 0.00 0.00 0.00 0.00 0.00 0.00 0.00 0.00 0.00 0.00 0.00 0.01 0.01 0.01 0.01 0.00 0.00 0.01 0.01 0.00 0.01 0.01 0.01 0.01 0.01
0.00 0.00 0.00 0.01 0.00 0.00 0.01 0.01 0.00 0.00 0.00 0.00 0.00 0.00 0.00 0.00 0.00 0.00 0.00 0.00 0.00 0.00 0.00 0.00 0.00 0.00 0.00 0.00 0.00 0.00 0.00 0.00 0.00 0.00 0.00 0.00 0.00 0.00 0.00 0.00 0.00 0.00 0.00 0.00 0.01 0.01 0.02 0.01 0.01
0.00 0.00 0.00 0.01 0.01 0.00 0.00 0.00 0.00 0.00 0.00 0.00 0.00 0.00 0.00 0.00 0.00 0.00 0.00 0.00 0.00 0.00 0.00 0.00 0.00 0.00 0.00 0.00 0.00 0.00 0.00 0.00 0.00 0.00 0.00 0.00 0.00 0.00 0.00 0.00 0.00 0.00 0.00 0.00 0.00 0.01 0.01 0.01 0.01
0.00 0.00 0.00 0.00 0.00 0.01 0.00 0.00 0.00 0.00 0.00 0.00 0.00 0.00 0.00 0.00 0.00 0.00 0.00 0.00 0.00 0.00 0.00 0.00 0.00 0.00 0.00 0.00 0.00 0.00 0.00 0.00 0.00 0.00 0.00 0.00 0.00 0.00 0.00 0.00 0.01 0.01 0.01 0.01 0.01 0.01 0.01 0.01 0.01
0.00 0.00 0.00 0.00 0.00 0.00 0.01 0.00 0.00 0.00 0.00 0.00 0.00 0.00 0.00 0.00 0.00 0.00 0.00 0.00 0.00 0.00 0.00 0.00 0.00 0.00 0.00 0.00 0.00 0.00 0.00 0.00 0.00 0.00 0.00 0.00 0.00 0.00 0.00 0.00 0.01 0.00 0.00 0.01 0.01 0.01 0.01 0.02 0.02
MSLP
1014.97 1015.44 1015.94 1016.39 1016.69 1016.78 1016.64 1016.28 1015.79 1015.25 1014.76 1014.39 1014.19 1014.15 1014.21 1014.32 1014.40 1014.39 1014.28 1014.08 1013.84 1013.63 1013.53 1013.57 1013.77 1014.12 1014.55 1015.00 1015.42 1015.75 1016.00 1016.17 1016.29 1016.41 1016.56 1016.76 1016.99 1017.22 1017.43 1017.58 1017.66 1017.67 1017.64 1017.60 1017.58 1017.61 1017.69 1017.81 1017.94
1015.07 1015.55 1016.01 1016.35 1016.50 1016.42 1016.11 1015.62 1015.02 1014.43 1013.94 1013.62 1013.48 1013.51 1013.65 1013.82 1013.94 1013.97 1013.89 1013.72 1013.53 1013.38 1013.35 1013.46 1013.73 1014.13 1014.61 1015.09 1015.53 1015.88 1016.13 1016.31 1016.45 1016.58 1016.73 1016.93 1017.15 1017.38 1017.57 1017.71 1017.79 1017.80 1017.77 1017.74 1017.72 1017.76 1017.83 1017.94 1018.07
1015.17 1015.60 1015.95 1016.16 1016.14 1015.90 1015.46 1014.88 1014.25 1013.69 1013.27 1013.05 1013.01 1013.14 1013.35 1013.57 1013.72 1013.76 1013.69 1013.54 1013.38 1013.28 1013.29 1013.46 1013.78 1014.22 1014.73 1015.23 1015.67 1016.03 1016.28 1016.46 1016.59 1016.71 1016.86 1017.03 1017.24 1017.44 1017.62 1017.76 1017.83 1017.86 1017.85 1017.83 1017.84 1017.88 1017.96 1018.07 1018.18
1015.25 1015.58 1015.79 1015.82 1015.64 1015.26 1014.72 1014.12 1013.54 1013.07 1012.79 1012.71 1012.81 1013.05 1013.33 1013.59 1013.75 1013.79 1013.72 1013.58 1013.44 1013.36 1013.41 1013.61 1013.96 1014.42 1014.92 1015.42 1015.85 1016.18 1016.42 1016.58 1016.70 1016.80 1016.93 1017.08 1017.25 1017.43 1017.59 1017.72 1017.81 1017.85 1017.88 1017.90 1017.93 1017.99 1018.07 1018.18 1018.28
1015.31 1015.50 1015.53 1015.38 1015.03 1014.53 1013.96 1013.38 1012.90 1012.59 1012.48 1012.58 1012.84 1013.19 1013.55 1013.84 1014.01 1014.04 1013.96 1013.82 1013.70 1013.64 1013.71 1013.93 1014.28 1014.72 1015.20 1015.65 1016.04 1016.35 1016.56 1016.69 1016.78 1016.87 1016.96 1017.08 1017.22 1017.38 1017.53 1017.65 1017.75 1017.82 1017.88 1017.93 1018.00 1018.08 1018.17 1018.27 1018.37
1015.36 1015.37 1015.21 1014.86 1014.37 1013.79 1013.20 1012.70 1012.36 1012.23 1012.32 1012.61 1013.02 1013.48 1013.90 1014.22 1014.40 1014.43 1014.36 1014.24 1014.13 1014.10 1014.19 1014.40 1014.73 1015.12 1015.54 1015.93 1016.27 1016.51 1016.68 1016.79 1016.86 1016.92 1017.00 1017.10 1017.21 1017.34 1017.47 1017.59 1017.69 1017.79 1017.87 1017.96 1018.04 1018.14 1018.23 1018.33 1018.41
1015.38 1015.21 1014.85 1014.33 1013.71 1013.07 1012.51 1012.10 1011.91 1011.97 1012.25 1012.70 1013.25 1013.80 1014.28 1014.63 1014.83 1014.89 1014.84 1014.76 1014.70 1014.70 1014.80 1015.00 1015.28 1015.61 1015.95 1016.26 1016.51 1016.70 1016.83 1016.91 1016.97 1017.02 1017.09 1017.17 1017.27 1017.37 1017.48 1017.58 1017.68 1017.77 1017.87 1017.97 1018.07 1018.16 1018.26 1018.34 1018.41
1015.36 1015.02 1014.49 1013.83 1013.11 1012.44 1011.92 1011.61 1011.56 1011.78 1012.21 1012.80 1013.44 1014.06 1014.58 1014.96 1015.20 1015.30 1015.32 1015.31 1015.31 1015.37 1015.49 1015.68 1015.91 1016.16 1016.40 1016.61 1016.78 1016.90 1016.99 1017.06 1017.12 1017.19 1017.27 1017.34 1017.42 1017.50 1017.58 1017.65 1017.72 1017.80 1017.89 1017.98 1018.07 1018.16 1018.24 1018.30 1018.35
1015.29 1014.81 1014.16 1013.39 1012.62 1011.96 1011.48 1011.26 1011.33 1011.67 1012.21 1012.87 1013.56 1014.21 1014.76 1015.17 1015.45 1015.63 1015.74 1015.83 1015.92 1016.05 1016.21 1016.38 1016.57 1016.73 1016.87 1016.98 1017.07 1017.13 1017.20 1017.27 1017.35 1017.44 1017.53 1017.62 1017.69 1017.74 1017.78 1017.81 1017.84 1017.88 1017.93 1018.00 1018.06 1018.13 1018.19 1018.23 1018.25
1015.16 1014.59 1013.86 1013.05 1012.28 1011.64 1011.23 1011.10 1011.25 1011.65 1012.24 1012.93 1013.63 1014.28 1014.83 1015.27 1015.60 1015.86 1016.09 1016.29 1016.49 1016.70 1016.90 1017.07 1017.21 1017.29 1017.34 1017.36 1017.37 1017.39 1017.44 1017.52 1017.63 1017.75 1017.87 1017.97 1018.04 1018.07 1018.06 1018.04 1018.02 1018.01 1018.01 1018.03 1018.07 1018.10 1018.13 1018.15 1018.14
1014.96 1014.36 1013.61 1012.82 1012.09 1011.53 1011.19 1011.13 1011.34 1011.78 1012.36 1013.03 1013.69 1014.31 1014.84 1015.30 1015.68 1016.03 1016.36 1016.69 1017.00 1017.29 1017.53 1017.71 1017.80 1017.82 1017.78 1017.72 1017.67 1017.66 1017.70 1017.80 1017.95 1018.11 1018.25 1018.37 1018.43 1018.43 1018.39 1018.32 1018.24 1018.17 1018.13 1018.10 1018.09 1018.09 1018.09 1018.07 1018.03
1014.70 1014.12 1013.43 1012.71 1012.07 1011.60 1011.36 1011.37 1011.62 1012.07 1012.63 1013.24 1013.84 1014.39 1014.89 1015.35 1015.77 1016.20 1016.62 1017.05 1017.45 1017.81 1018.08 1018.25 1018.31 1018.28 1018.18 1018.06 1017.97 1017.94 1017.98 1018.10 1018.27 1018.46 1018.63 1018.75 1018.80 1018.79 1018.72 1018.60 1018.48 1018.37 1018.27 1018.21 1018.16 1018.12 1018.08 1018.02 1017.94
1014.44 1013.91 1013.30 1012.70 1012.19 1011.85 1011.72 1011.82 1012.11 1012.55 1013.07 1013.61 1014.13 1014.62 1015.07 1015.50 1015.94 1016.41 1016.90 1017.39 1017.85 1018.24 1018.53 1018.70 1018.73 1018.66 1018.52 1018.37 1018.26 1018.22 1018.27 1018.40 1018.59 1018.79 1018.96 1019.08 1019.12 1019.09 1019.00 1018.86 1018.71 1018.57 1018.45 1018.36 1018.28 1018.20 1018.12 1018.01 1017.89
1014.22 1013.77 1013.27 1012.80 1012.45 1012.26 1012.26 1012.44 1012.77 1013.21 1013.69 1014.16 1014.61 1015.02 1015.42 1015.82 1016.25 1016.72 1017.22 1017.73 1018.21 1018.60 1018.89 1019.04 1019.05 1018.96 1018.81 1018.66 1018.55 1018.51 1018.56 1018.69 1018.87 1019.06 1019.22 1019.32 1019.35 1019.30 1019.20 1019.06 1018.91 1018.77 1018.64 1018.53 1018.43 1018.33 1018.21 1018.05 1017.87
1014.11 1013.73 1013.35 1013.02 1012.82 1012.78 1012.90 1013.17 1013.56 1014.00 1014.45 1014.87 1015.25 1015.60 1015.94 1016.29 1016.69 1017.13 1017.60 1018.08 1018.53 1018.89 1019.15 1019.27 1019.27 1019.19 1019.05 1018.92 1018.83 1018.81 1018.86 1018.98 1019.14 1019.29 1019.41 1019.48 1019.48 1019.42 1019.32 1019.19 1019.06 1018.95 1018.84 1018.74 1018.63 1018.50 1018.34 1018.13 1017.88
1014.19 1013.86 1013.57 1013.36 1013.29 1013.38 1013.61 1013.96 1014.38 1014.83 1015.26 1015.64 1015.98 1016.28 1016.56 1016.87 1017.21 1017.60 1018.01 1018.42 1018.80 1019.11 1019.32 1019.42 1019.42 1019.36 1019.26 1019.17 1019.12 1019.12 1019.18 1019.28 1019.39 1019.49 1019.55 1019.56 1019.53 1019.46 1019.37 1019.27 1019.18 1019.10 1019.03 1018.95 1018.84 1018.70 1018.50 1018.24 1017.94
1014.48 1014.17 1013.94 1013.82 1013.85 1014.03 1014.34 1014.74 1015.18 1015.62 1016.03 1016.38 1016.67 1016.93 1017.18 1017.45 1017.73 1018.05 1018.39 1018.72 1019.02 1019.25 1019.41 1019.49 1019.50 1019.48 1019.44 1019.41 1019.42 1019.46 1019.52 1019.59 1019.65 1019.67 1019.66 1019.61 1019.53 1019.45 1019.37 1019.31 1019.27 1019.24 1019.21 1019.16 1019.06 1018.90 1018.68 1018.38 1018.03
1014.98 1014.68 1014.48 1014.41 1014.50 1014.72 1015.05 1015.46 1015.88 1016.29 1016.65 1016.96 1017.22 1017.45 1017.68 1017.91 1018.16 1018.42 1018.69 1018.94 1019.15 1019.31 1019.43 1019.49 1019.53 1019.56 1019.59 1019.65 1019.72 1019.80 1019.86 1019.91 1019.90 1019.86 1019.77 1019.65 1019.53 1019.42 1019.35 1019.33 1019.33 1019.36 1019.37 1019.35 1019.27 1019.11 1018.87 1018.55 1018.16
1015.65 1015.34 1015.15 1015.11 1015.21 1015.43 1015.74 1016.08 1016.43 1016.76 1017.04 1017.29 1017.51 1017.71 1017.92 1018.15 1018.38 1018.62 1018.84 1019.03 1019.18 1019.30 1019.38 1019.44 1019.51 1019.60 1019.71 1019.85 1019.99 1020.11 1020.20 1020.21 1020.16 1020.04 1019.88 1019.70 1019.53 1019.41 1019.35 1019.36 1019.41 1019.47 1019.53 1019.53 1019.46 1019.30 1019.05 1018.72 1018.33
1016.41 1016.12 1015.94 1015.91 1015.99 1016.16 1016.38 1016.62 1016.83 1017.02 1017.18 1017.32 1017.48 1017.65 1017.86 1018.09 1018.35 1018.59 1018.81 1018.98 1019.11 1019.20 1019.27 1019.35 1019.45 1019.60 1019.79 1020.00 1020.21 1020.38 1020.48 1020.48 1020.39 1020.22 1020.00 1019.77 1019.57 1019.43 1019.38 1019.40 1019.48 1019.59 1019.66 1019.69 1019.62 1019.47 1019.22 1018.89 1018.50
1017.20 1016.94 1016.80 1016.78 1016.83 1016.92 1017.01 1017.08 1017.10 1017.08 1017.06 1017.07 1017.13 1017.26 1017.47 1017.74 1018.03 1018.33 1018.59 1018.79 1018.93 1019.03 1019.12 1019.21 1019.35 1019.55 1019.79 1020.07 1020.33 1020.55 1020.67 1020.68 1020.57 1020.37 1020.11 1019.85 1019.63 1019.49 1019.44 1019.48 1019.57 1019.69 1019.78 1019.80 1019.74 1019.58 1019.34 1019.02 1018.66
1017.95 1017.77 1017.70 1017.71 1017.73 1017.73 1017.66 1017.51 1017.28 1017.02 1016.77 1016.60 1016.53 1016.60 1016.80 1017.12 1017.49 1017.87 1018.21 1018.48 1018.68 1018.82 1018.93 1019.04 1019.21 1019.44 1019.72 1020.04 1020.34 1020.59 1020.74 1020.76 1020.66 1020.46 1020.20 1019.94 1019.72 1019.58 1019.53 1019.57 1019.66 1019.77 1019.85 1019.87 1019.79 1019.63 1019.38 1019.08 1018.75
1018.63 1018.58 1018.62 1018.67 1018.68 1018.59 1018.35 1017.96 1017.47 1016.93 1016.42 1016.03 1015.81 1015.80 1015.99 1016.34 1016.79 1017.28 1017.73 1018.10 1018.37 1018.57 1018.72 1018.86 1019.04 1019.27 1019.57 1019.90 1020.23 1020.50 1020.68 1020.73 1020.65 1020.48 1020.24 1020.00 1019.80 1019.66 1019.62 1019.65 1019.74 1019.82 1019.88 1019.86 1019.77 1019.58 1019.33 1019.04 1018.73
1019.23 1019.36 1019.53 1019.67 1019.68 1019.50 1019.10 1018.48 1017.72 1016.88 1016.10 1015.48 1015.09 1014.98 1015.14 1015.53 1016.06 1016.65 1017.21 1017.69 1018.05 1018.31 1018.49 1018.65 1018.83 1019.06 1019.34 1019.67 1020.00 1020.28 1020.49 1020.57 1020.54 1020.41 1020.23 1020.02 1019.85 1019.73 1019.69 1019.72 1019.77 1019.82 1019.84 1019.78 1019.65 1019.44 1019.18 1018.88 1018.59
1019.80 1020.11 1020.44 1020.66 1020.69 1020.45 1019.90 1019.08 1018.06 1016.96 1015.92 1015.07 1014.51 1014.29 1014.40 1014.80 1015.39 1016.06 1016.72 1017.29 1017.74 1018.05 1018.26 1018.43 1018.59 1018.79 1019.05 1019.36 1019.68 1019.97 1020.20 1020.33 1020.35 1020.28 1020.15 1020.00 1019.86 1019.77 1019.73 1019.73 1019.76 1019.76 1019.73 1019.62 1019.45 1019.21 1018.93 1018.63 1018.33
1020.35 1020.84 1021.31 1021.62 1021.67 1021.38 1020.71 1019.72 1018.49 1017.16 1015.90 1014.85 1014.14 1013.80 1013.86 1014.24 1014.85 1015.58 1016.30 1016.94 1017.43 1017.78 1018.01 1018.17 1018.31 1018.48 1018.71 1018.99 1019.29 1019.59 1019.84 1020.01 1020.09 1020.09 1020.02 1019.92 1019.83 1019.75 1019.71 1019.69 1019.68 1019.64 1019.55 1019.41 1019.19 1018.92 1018.62 1018.30 1018.00
1020.90 1021.52 1022.09 1022.46 1022.52 1022.19 1021.44 1020.32 1018.95 1017.46 1016.04 1014.84 1014.00 1013.57 1013.56 1013.89 1014.49 1015.23 1015.97 1016.62 1017.14 1017.50 1017.73 1017.87 1017.99 1018.13 1018.32 1018.58 1018.87 1019.17 1019.45 1019.66 1019.80 1019.86 1019.85 1019.80 1019.74 1019.68 1019.63 1019.59 1019.54 1019.46 1019.34 1019.15 1018.91 1018.62 1018.30 1017.97 1017.66
1021.42 1022.11 1022.72 1023.10 1023.14 1022.77 1021.97 1020.78 1019.33 1017.76 1016.26 1014.99 1014.07 1013.56 1013.48 1013.75 1014.30 1014.99 1015.69 1016.32 1016.81 1017.16 1017.37 1017.50 1017.59 1017.71 1017.89 1018.13 1018.42 1018.74 1019.04 1019.30 1019.49 1019.60 1019.65 1019.64 1019.61 1019.56 1019.51 1019.45 1019.37 1019.26 1019.11 1018.90 1018.65 1018.35 1018.04 1017.71 1017.40
1021.85 1022.52 1023.08 1023.41 1023.40 1022.98 1022.15 1020.96 1019.51 1017.95 1016.47 1015.20 1014.26 1013.72 1013.57 1013.77 1014.23 1014.82 1015.44 1016.00 1016.43 1016.73 1016.91 1017.02 1017.10 1017.22 1017.39 1017.64 1017.95 1018.29 1018.62 1018.92 1019.16 1019.32 1019.41 1019.45 1019.44 1019.40 1019.34 1019.27 1019.18 1019.06 1018.90 1018.70 1018.45 1018.18 1017.88 1017.58 1017.29
1022.11 1022.66 1023.09 1023.30 1023.21 1022.74 1021.91 1020.76 1019.39 1017.94 1016.55 1015.36 1014.47 1013.93 1013.74 1013.86 1014.21 1014.68 1015.17 1015.61 1015.95 1016.18 1016.32 1016.41 1016.50 1016.62 1016.82 1017.09 1017.43 1017.81 1018.19 1018.53 1018.81 1019.02 1019.15 1019.22 1019.23 1019.20 1019.15 1019.08 1018.99 1018.87 1018.73 1018.55 1018.34 1018.11 1017.86 1017.60 1017.34
Thickness
5684 5687 5688 5682 5668 5657 5664 5679 5695 5703 5708 5717 5722 5720 5717 5714 5714 5711 5723 5732 5733 5732 5732 5732 5732 5732 5732 5731 5731 5731 5731 5731 5731 5731 5731 5731 5731 5731 5731 5731 5732 5731 5731 5731 5731 5730 5730 5729 5729
5675 5678 5674 5664 5651 5646 5659 5677 5689 5699 5709 5714 5715 5714 5710 5709 5715 5717 5722 5727 5729 5729 5729 5729 5728 5728 5728 5728 5728 5727 5728 5728 5727 5728 5728 5728 5728 5728 5728 5728 5728 5728 5728 5728 5727 5727 5727 5726 5726
5667 5668 5658 5648 5644 5648 5663 5677 5685 5697 5705 5707 5704 5705 5704 5704 5710 5714 5719 5723 5724 5724 5724 5724 5724 5723 5723 5723 5724 5724 5724 5724 5724 5724 5724 5724 5724 5725 5725 5725 5725 5724 5724 5724 5724 5724 5723 5723 5722
5656 5651 5645 5639 5645 5657 5669 5677 5684 5690 5696 5699 5696 5692 5696 5703 5707 5711 5715 5718 5719 5718 5718 5719 5719 5719 5719 5719 5719 5719 5719 5720 5720 5720 5720 5720 5721 5721 5721 5721 5721 5720 5720 5720 5720 5720 5720 5719 5719
5644 5636 5631 5630 5642 5656 5665 5673 5679 5681 5685 5689 5688 5684 5686 5696 5703 5706 5709 5711 5712 5711 5712 5713 5714 5714 5714 5714 5714 5714 5714 5715 5715 5716 5716 5717 5717 5717 5717 5717 5717 5717 5717 5717 5716 5716 5716 5716 5716
5628 5625 5618 5622 5637 5651 5659 5667 5673 5673 5676 5681 5681 5677 5679 5688 5694 5697 5701 5703 5705 5705 5705 5706 5707 5708 5708 5708 5708 5708 5709 5710 5710 5711 5711 5711 5712 5712 5712 5713 5713 5713 5713 5713 5712 5713 5712 5712 5712
5619 5615 5615 5622 5631 5642 5654 5662 5663 5664 5667 5673 5677 5670 5672 5680 5686 5690 5693 5695 5696 5697 5698 5698 5699 5700 5701 5701 5702 5703 5703 5704 5705 5705 5705 5706 5706 5706 5707 5708 5708 5708 5708 5709 5709 5709 5709 5709 5708
5617 5612 5614 5617 5626 5636 5649 5655 5659 5660 5663 5672 5673 5666 5666 5674 5680 5683 5685 5686 5688 5689 5690 5691 5692 5693 5694 5695 5696 5697 5697 5698 5699 5699 5700 5701 5701 5701 5701 5702 5703 5703 5704 5704 5704 5705 5705 5705 5705
5615 5603 5606 5616 5623 5632 5642 5646 5653 5659 5660 5664 5667 5669 5672 5674 5675 5675 5675 5676 5678 5679 5681 5683 5685 5686 5687 5688 5689 5690 5691 5692 5692 5693 5694 5695 5695 5696 5696 5697 5697 5698 5699 5699 5699 5700 5700 5701 5701
5604 5597 5608 5620 5625 5628 5635 5639 5644 5648 5649 5652 5657 5661 5665 5666 5667 5666 5667 5667 5668 5670 5673 5675 5677 5679 5681 5682 5682 5683 5684 5685 5685 5686 5688 5689 5689 5690 5691 5691 5692 5693 5693 5694 5695 5695 5696 5696 5696
5601 5600 5610 5618 5624 5627 5629 5632 5638 5639 5639 5645 5649 5653 5656 5657 5658 5658 5659 5660 5661 5663 5665 5667 5670 5672 5673 5674 5675 5676 5677 5678 5679 5680 5681 5682 5683 5684 5685 5685 5686 5687 5687 5688 5689 5689 5690 5690 5691
5597 5602 5609 5614 5620 5622 5623 5626 5628 5632 5638 5644 5648 5649 5650 5650 5650 5651 5652 5653 5654 5656 5657 5659 5662 5664 5665 5666 5668 5669 5669 5670 5671 5672 5674 5675 5676 5676 5678 5679 5680 5680 5681 5682 5683 5683 5684 5685 5686
5593 5598 5605 5609 5614 5616 5618 5618 5621 5625 5633 5637 5640 5641 5642 5643 5643 5645 5647 5647 5648 5649 5650 5652 5654 5656 5657 5659 5660 5661 5662 5663 5664 5665 5666 5667 5668 5669 5670 5671 5672 5674 5674 5675 5676 5677 5678 5679 5680
5592 5594 5598 5603 5607 5611 5611 5613 5615 5620 5627 5629 5632 5633 5635 5636 5637 5638 5639 5640 5641 5642 5643 5644 5646 5648 5649 5651 5652 5653 5654 5655 5656 5657 5658 5660 5661 5662 5663 5664 5665 5666 5667 5668 5670 5671 5672 5673 5674
5590 5589 5592 5597 5602 5605 5607 5604 5608 5617 5621 5622 5624 5627 5629 5629 5631 5632 5633 5634 5635 5636 5637 5637 5639 5640 5641 5643 5644 5645 5646 5648 5648 5649 5650 5652 5653 5654 5656 5657 5658 5659 5660 5661 5663 5664 5665 5666 5667
5583 5579 5578 5591 5597 5599 5598 5594 5607 5613 5615 5615 5617 5620 5622 5624 5625 5626 5627 5628 5628 5629 5629 5630 5632 5632 5633 5634 5635 5637 5638 5639 5640 5641 5642 5644 5645 5647 5648 5649 5650 5651 5652 5654 5655 5656 5657 5658 5660
5570 5568 5573 5583 5592 5594 5592 5591 5603 5608 5610 5611 5612 5614 5616 5617 5619 5620 5621 5621 5622 5622 5622 5623 5624 5624 5626 5627 5628 5629 5630 5631 5631 5633 5634 5636 5637 5639 5640 5641 5642 5643 5644 5645 5647 5648 5649 5650 5651
5567 5569 5572 5576 5585 5588 5586 5590 5600 5602 5604 5605 5607 5609 5610 5612 5613 5615 5615 5615 5615 5615 5616 5616 5616 5617 5618 5620 5620 5620 5621 5622 5623 5624 5626 5627 5629 5630 5631 5632 5633 5635 5635 5636 5638 5639 5641 5642 5643
5570 5569 5569 5574 5582 5583 5583 5588 5597 5599 5600 5600 5602 5603 5605 5607 5608 5608 5608 5608 5608 5608 5608 5609 5609 5610 5611 5612 5611 5612 5612 5613 5614 5616 5617 5618 5620 5621 5622 5623 5625 5626 5626 5627 5628 5630 5631 5632 5634
5569 5566 5566 5572 5578 5579 5579 5584 5593 5597 5599 5601 5602 5602 5602 5603 5602 5602 5602 5601 5601 5602 5602 5602 5603 5603 5604 5604 5604 5604 5604 5605 5606 5607 5608 5609 5611 5612 5613 5614 5615 5616 5617 5618 5619 5619 5620 5622 5623
5564 5563 5564 5566 5570 5574 5574 5579 5588 5595 5599 5600 5600 5601 5600 5600 5599 5598 5597 5596 5595 5595 5596 5598 5597 5597 5597 5597 5597 5596 5596 5596 5596 5598 5599 5600 5601 5603 5604 5605 5606 5607 5608 5608 5609 5609 5610 5610 5611
5560 5566 5567 5566 5559 5555 5564 5560 5581 5587 5592 5595 5595 5594 5594 5596 5595 5594 5593 5591 5590 5590 5590 5591 5591 5590 5590 5590 5589 5588 5587 5586 5587 5588 5589 5591 5592 5593 5595 5596 5597 5597 5598 5598 5599 5600 5600 5600 5600
5560 5563 5562 5560 5556 5551 5556 5555 5571 5582 5587 5592 5592 5591 5591 5591 5591 5591 5590 5589 5587 5585 5584 5584 5584 5583 5583 5582 5581 5580 5579 5579 5579 5579 5581 5582 5583 5584 5585 5586 5586 5587 5587 5588 5588 5589 5590 5590 5591
5559 5557 5554 5546 5542 5547 5557 5552 5564 5574 5586 5591 5591 5589 5588 5587 5587 5586 5585 5583 5581 5579 5578 5577 5577 5576 5575 5574 5573 5573 5571 5571 5570 5570 5571 5572 5573 5574 5575 5575 5576 5576 5577 5577 5578 5579 5580 5581 5581
5550 5540 5531 5534 5530 5544 5555 5553 5564 5583 5588 5590 5589 5586 5584 5582 5581 5579 5578 5576 5575 5573 5571 5570 5570 5569 5568 5566 5566 5565 5564 5563 5562 5562 5561 5562 5563 5563 5564 5565 5565 5566 5566 5567 5568 5568 5569 5570 5571
5543 5539 5530 5533 5532 5534 5546 5549 5568 5581 5584 5586 5585 5582 5579 5576 5574 5574 5572 5571 5569 5568 5566 5564 5563 5562 5560 5558 5557 5556 5555 5554 5553 5553 5553 5552 5553 5553 5554 5554 5554 5555 5555 5556 5557 5558 5558 5559 5560
5541 5532 5535 5522 5521 5523 5536 5548 5566 5578 5578 5577 5576 5574 5572 5570 5568 5567 5565 5564 5562 5561 5559 5558 5556 5555 5553 5551 5549 5547 5546 5545 5544 5544 5544 5543 5543 5543 5543 5543 5543 5543 5544 5545 5546 5547 5547 5548 5549
5540 5533 5520 5520 5523 5527 5535 5541 5553 5567 5568 5568 5567 5565 5564 5563 5561 5559 5558 5557 5555 5554 5553 5550 5549 5547 5545 5543 5541 5540 5538 5537 5535 5535 5534 5533 5533 5533 5533 5532 5532 5532 5533 5534 5535 5536 5537 5538 5538
5532 5530 5522 5511 5512 5516 5521 5540 5560 5563 5563 5561 5559 5559 5557 5556 5554 5552 5551 5549 5548 5546 5544 5542 5540 5539 5537 5535 5533 5531 5529 5528 5526 5525 5525 5524 5524 5523 5522 5522 5522 5522 5523 5523 5524 5525 5526 5527 5527
5528 5527 5517 5514 5511 5502 5503 5532 5560 5557 5556 5555 5554 5553 5551 5549 5546 5544 5542 5540 5538 5537 5535 5533 5532 5530 5529 5527 5525 5522 5520 5518 5517 5516 5515 5514 5514 5513 5512 5512 5512 5512 5512 5512 5513 5514 5514 5515 5515